| time (UTC) | temp F | wind direction | speed MPH | gust MPH | rain 1hr in | rain 24hr in | rain mn in | humidity % | barometer mb |
| 20260906051541 | 77 | 200 | 6.0 | 9.0 | 0.00 | 0.00 | 0.00 | 65 | 1007.9 |
| 20260906050044 | 77 | 184 | 3.0 | 6.0 | 0.00 | 0.00 | 0.00 | 66 | 1008.0 |
| 20260906044537 | 78 | 189 | 3.0 | 7.0 | 0.00 | 0.00 | 0.00 | 64 | 1008.0 |
| 20260906043032 | 78 | 186 | 4.0 | 6.0 | 0.00 | 0.00 | 0.00 | 64 | 1008.0 |
| 20260906041535 | 78 | 161 | 2.0 | 5.0 | 0.00 | 0.00 | 0.00 | 62 | 1008.0 |
| 20260906040031 | 79 | 158 | 2.0 | 6.0 | 0.00 | 0.00 | 0.00 | 61 | 1008.1 |
| 20260906034530 | 79 | 137 | 3.0 | 7.0 | 0.00 | 0.00 | 0.00 | 61 | 1008.0 |
| 20260906033040 | 80 | 137 | 3.0 | 7.0 | 0.00 | 0.00 | 0.00 | 59 | 1007.8 |
| 20260906031531 | 80 | 160 | 3.0 | 5.0 | 0.00 | 0.00 | 0.00 | 59 | 1007.5 |
| 20260906030030 | 81 | 119 | 2.0 | 6.0 | 0.00 | 0.00 | 0.00 | 57 | 1007.4 |
| 20260906024528 | 81 | 205 | 3.0 | 6.0 | 0.00 | 0.00 | 0.00 | 57 | 1007.5 |
| 20260906023028 | 82 | 152 | 2.0 | 3.0 | 0.00 | 0.00 | 0.00 | 56 | 1007.6 |
| 20260906021528 | 83 | 141 | 4.0 | 8.0 | 0.00 | 0.00 | 0.00 | 53 | 1007.2 |
| 20260906020028 | 84 | 140 | 5.0 | 9.0 | 0.00 | 0.00 | 0.00 | 52 | 1007.1 |
| 20260906014528 | 85 | 173 | 6.0 | 13.0 | 0.00 | 0.00 | 0.00 | 49 | 1007.0 |
| 20260906013026 | 85 | 134 | 15.0 | 20.0 | 0.00 | 0.00 | 0.00 | 48 | 1007.0 |
| 20260906011534 | 85 | 101 | 3.0 | 5.0 | 0.00 | 0.00 | 0.00 | 47 | 1006.6 |
| 20260906010025 | 87 | 100 | 1.0 | 3.0 | 0.00 | 0.00 | 0.00 | 46 | 1006.5 |
| 20260906004524 | 88 | 98 | 2.0 | 4.0 | 0.00 | 0.00 | 0.00 | 43 | 1006.6 |
| 20260906003024 | 89 | 104 | 4.0 | 7.0 | 0.00 | 0.00 | 0.00 | 42 | 1006.6 |
| 20260906001524 | 90 | 105 | 4.0 | 9.0 | 0.00 | 0.00 | 0.00 | 40 | 1006.4 |
| 20260906000023 | 91 | 108 | 7.0 | 11.0 | 0.00 | 0.00 | 0.00 | 39 | 1006.4 |
| 20260905234523 | 92 | 119 | 8.0 | 12.0 | 0.00 | 0.00 | 0.00 | 36 | 1006.2 |
| 20260905233021 | 93 | 102 | 7.0 | 15.0 | 0.00 | 0.00 | 0.00 | 35 | 1006.0 |
| 20260905231523 | 95 | 99 | 11.0 | 17.0 | 0.00 | 0.00 | 0.00 | 34 | 1005.9 |
| 20260905230021 | 96 | 102 | 12.0 | 18.0 | 0.00 | 0.00 | 0.00 | 32 | 1005.9 |
| 20260905224531 | 96 | 131 | 13.0 | 19.0 | 0.00 | 0.00 | 0.00 | 32 | 1005.8 |
| 20260905223019 | 96 | 111 | 13.0 | 18.0 | 0.00 | 0.00 | 0.00 | 33 | 1006.0 |
| 20260905221518 | 96 | 112 | 12.0 | 17.0 | 0.00 | 0.00 | 0.00 | 32 | 1006.1 |
| 20260905220018 | 96 | 115 | 13.0 | 20.0 | 0.00 | 0.00 | 0.00 | 31 | 1006.2 |
| 20260905214516 | 96 | 136 | 14.0 | 23.0 | 0.00 | 0.00 | 0.00 | 33 | 1006.3 |
| 20260905213015 | 96 | 124 | 14.0 | 23.0 | 0.00 | 0.00 | 0.00 | 34 | 1006.4 |
| 20260905211514 | 96 | 124 | 16.0 | 23.0 | 0.00 | 0.00 | 0.00 | 32 | 1006.6 |
| 20260905210013 | 96 | 97 | 15.0 | 22.0 | 0.00 | 0.00 | 0.00 | 32 | 1006.8 |
| 20260905204517 | 97 | 96 | 13.0 | 21.0 | 0.00 | 0.00 | 0.00 | 32 | 1006.9 |
| 20260905203011 | 96 | 141 | 15.0 | 23.0 | 0.00 | 0.00 | 0.00 | 32 | 1007.0 |
| 20260905201510 | 96 | 113 | 15.0 | 21.0 | 0.00 | 0.00 | 0.00 | 33 | 1007.1 |
| 20260905200008 | 95 | 108 | 13.0 | 21.0 | 0.00 | 0.00 | 0.00 | 34 | 1007.3 |
| 20260905194504 | 94 | 115 | 13.0 | 18.0 | 0.00 | 0.00 | 0.00 | 37 | 1007.4 |
| 20260905193005 | 94 | 116 | 13.0 | 22.0 | 0.00 | 0.00 | 0.00 | 37 | 1007.5 |
| 20260905191502 | 94 | 105 | 13.0 | 19.0 | 0.00 | 0.00 | 0.00 | 37 | 1007.6 |
| 20260905184602 | 93 | 122 | 12.0 | 19.0 | 0.00 | 0.00 | 0.00 | 40 | 1007.9 |
| 20260905183100 | 93 | 91 | 13.0 | 19.0 | 0.00 | 0.00 | 0.00 | 40 | 1008.1 |
| 20260905181609 | 92 | 97 | 11.0 | 18.0 | 0.00 | 0.00 | 0.00 | 42 | 1008.4 |
| 20260905180054 | 90 | 105 | 9.0 | 15.0 | 0.00 | 0.00 | 0.00 | 44 | 1008.6 |
| 20260905174555 | 90 | 108 | 10.0 | 19.0 | 0.00 | 0.00 | 0.00 | 44 | 1008.6 |
| 20260905173051 | 90 | 120 | 11.0 | 18.0 | 0.00 | 0.00 | 0.00 | 43 | 1008.8 |
| 20260905171550 | 89 | 125 | 11.0 | 18.0 | 0.00 | 0.00 | 0.00 | 44 | 1008.7 |
| 20260905170047 | 88 | 113 | 8.0 | 17.0 | 0.00 | 0.00 | 0.00 | 45 | 1008.6 |
| 20260905164544 | 88 | 103 | 9.0 | 12.0 | 0.00 | 0.00 | 0.00 | 46 | 1008.6 |
| 20260905163041 | 86 | 122 | 6.0 | 10.0 | 0.00 | 0.00 | 0.00 | 49 | 1008.7 |
| 20260905161537 | 85 | 79 | 4.0 | 11.0 | 0.00 | 0.00 | 0.00 | 51 | 1008.7 |
| 20260905154531 | 83 | 77 | 6.0 | 9.0 | 0.00 | 0.00 | 0.00 | 55 | 1008.6 |
| 20260905153030 | 82 | 78 | 5.0 | 9.0 | 0.00 | 0.00 | 0.00 | 56 | 1008.3 |
| 20260905151534 | 82 | 74 | 4.0 | 7.0 | 0.00 | 0.00 | 0.00 | 58 | 1008.3 |
| 20260905150030 | 81 | 39 | 3.0 | 5.0 | 0.00 | 0.00 | 0.00 | 57 | 1008.3 |
| 20260905144527 | 83 | 77 | 2.0 | 4.0 | 0.00 | 0.00 | 0.00 | 55 | 1008.1 |
| 20260905143026 | 82 | 187 | 0.0 | 0.0 | 0.00 | 0.00 | 0.00 | 55 | 1008.1 |
| 20260905141524 | 80 | 202 | 0.0 | 0.0 | 0.00 | 0.00 | 0.00 | 58 | 1008.1 |
| 20260905140023 | 78 | 213 | 0.0 | 0.0 | 0.00 | 0.00 | 0.00 | 63 | 1008.1 |
| 20260905134521 | 75 | 223 | 0.0 | 0.0 | 0.00 | 0.00 | 0.00 | 70 | 1008.1 |
| 20260905133022 | 73 | 254 | 0.0 | 0.0 | 0.00 | 0.00 | 0.00 | 74 | 1007.9 |
| 20260905131520 | 71 | 256 | 0.0 | 0.0 | 0.00 | 0.00 | 0.00 | 80 | 1008.0 |
| 20260905130020 | 68 | 257 | 0.0 | 0.0 | 0.00 | 0.00 | 0.00 | 83 | 1007.9 |
| 20260905124518 | 67 | 236 | 0.0 | 0.0 | 0.00 | 0.00 | 0.00 | 84 | 1007.7 |
| 20260905123017 | 67 | 236 | 0.0 | 0.0 | 0.00 | 0.00 | 0.00 | 85 | 1007.4 |
| 20260905121515 | 67 | 207 | 0.0 | 0.0 | 0.00 | 0.00 | 0.00 | 81 | 1007.5 |
| 20260905120013 | 69 | 252 | 0.0 | 0.0 | 0.00 | 0.00 | 0.00 | 78 | 1007.3 |
| 20260905114513 | 70 | 257 | 0.0 | 0.0 | 0.00 | 0.00 | 0.00 | 77 | 1007.1 |
| 20260905113012 | 71 | 257 | 0.0 | 0.0 | 0.00 | 0.00 | 0.00 | 76 | 1007.1 |
| 20260905111512 | 71 | 265 | 0.0 | 0.0 | 0.00 | 0.00 | 0.00 | 77 | 1007.1 |
| 20260905110012 | 69 | 349 | 0.0 | 0.0 | 0.00 | 0.00 | 0.00 | 82 | 1007.2 |
| 20260905104507 | 71 | 261 | 0.0 | 0.0 | 0.00 | 0.00 | 0.00 | 77 | 1007.3 |
| 20260905103017 | 71 | 259 | 0.0 | 0.0 | 0.00 | 0.00 | 0.00 | 79 | 1007.2 |
| 20260905101506 | 71 | 70 | 0.0 | 0.0 | 0.00 | 0.00 | 0.00 | 80 | 1007.5 |
| 20260905100002 | 72 | 255 | 0.0 | 0.0 | 0.00 | 0.00 | 0.00 | 77 | 1007.7 |
| 20260905094600 | 73 | 230 | 1.0 | 3.0 | 0.00 | 0.00 | 0.00 | 76 | 1007.6 |
| 20260905093058 | 75 | 179 | 3.0 | 4.0 | 0.00 | 0.00 | 0.00 | 72 | 1007.8 |
| 20260905091620 | 75 | 220 | 0.0 | 0.0 | 0.00 | 0.00 | 0.00 | 71 | 1007.6 |
| 20260905090117 | 75 | 221 | 0.0 | 3.0 | 0.00 | 0.00 | 0.00 | 70 | 1007.4 |
| 20260905084606 | 75 | 245 | 3.0 | 5.0 | 0.00 | 0.00 | 0.00 | 70 | 1007.3 |
| 20260905083049 | 77 | 172 | 2.0 | 3.0 | 0.00 | 0.00 | 0.00 | 65 | 1007.6 |
| 20260905081546 | 78 | 151 | 0.0 | 3.0 | 0.00 | 0.00 | 0.00 | 62 | 1007.6 |
| 20260905080050 | 78 | 162 | 1.0 | 3.0 | 0.00 | 0.00 | 0.00 | 62 | 1007.3 |
| 20260905074542 | 78 | 171 | 1.0 | 4.0 | 0.00 | 0.00 | 0.00 | 61 | 1007.2 |
| 20260905073039 | 79 | 135 | 3.0 | 5.0 | 0.00 | 0.00 | 0.00 | 59 | 1007.2 |
| 20260905071538 | 79 | 166 | 5.0 | 8.0 | 0.00 | 0.00 | 0.00 | 60 | 1007.2 |
| 20260905070036 | 79 | 169 | 6.0 | 9.0 | 0.00 | 0.00 | 0.00 | 59 | 1007.1 |
| 20260905064535 | 79 | 214 | 6.0 | 9.0 | 0.00 | 0.00 | 0.00 | 59 | 1006.9 |
| 20260905063032 | 80 | 182 | 6.0 | 9.0 | 0.00 | 0.00 | 0.00 | 58 | 1007.1 |
| 20260905061528 | 81 | 171 | 6.0 | 12.0 | 0.00 | 0.00 | 0.00 | 56 | 1007.0 |
| 20260905060026 | 81 | 179 | 6.0 | 10.0 | 0.00 | 0.00 | 0.00 | 55 | 1006.7 |
| 20260905054523 | 82 | 141 | 7.0 | 12.0 | 0.00 | 0.00 | 0.00 | 54 | 1006.6 |
| 20260905053020 | 83 | 193 | 9.0 | 14.0 | 0.00 | 0.00 | 0.00 | 52 | 1006.5 |